• In Russia
  • List of Countries
  • For 7 days
  • Water Temperature
  • Satellite Maps
  • Weather Map
  • Weather Widgets
  • user-avatar
    Login

    Hourly Weather Liepaja

    Today, 19 October, Friday

    Time Temperature Precipitation Wind Pressure Humidity
    00:00 +9°C° 0 mm 3 mps 765 mmHg 92%
    01:00 +9°C° 0 mm 3 mps 765 mmHg 93%
    02:00 +8°C° 0 mm 3 mps 765 mmHg 93%
    03:00 +8°C° 0 mm 3 mps 765 mmHg 94%
    04:00 +7°C° 0 mm 3 mps 765 mmHg 94%
    05:00 +7°C° 0 mm 3 mps 766 mmHg 94%
    06:00 +7°C° 0 mm 3 mps 766 mmHg 94%
    07:00 +7°C° 0 mm 3 mps 766 mmHg 94%
    08:00 +8°C° 0 mm 2 mps 766 mmHg 85%
    09:00 +10°C° 0 mm 2 mps 767 mmHg 77%
    10:00 +12°C° 0 mm 2 mps 767 mmHg 69%
    11:00 +13°C° 0 mm 2 mps 767 mmHg 65%
    12:00 +13°C° 0 mm 1 mps 767 mmHg 60%
    13:00 +14°C° 0 mm 1 mps 767 mmHg 55%
    14:00 +13°C° 0 mm 1 mps 767 mmHg 59%
    15:00 +12°C° 0 mm 1 mps 767 mmHg 63%
    16:00 +11°C° 0 mm 1 mps 767 mmHg 67%
    17:00 +10°C° 0 mm 1 mps 767 mmHg 70%
    18:00 +9°C° 0 mm 1 mps 767 mmHg 73%
    19:00 +9°C° 0 mm 1 mps 767 mmHg 75%
    20:00 +8°C° 0 mm 1 mps 767 mmHg 76%
    21:00 +8°C° 0 mm 1 mps 767 mmHg 77%
    22:00 +7°C° 0 mm 2 mps 767 mmHg 79%
    23:00 +6°C° 0 mm 2 mps 767 mmHg 80%

    Tomorrow, 20 October, Saturday

    Time Temperature Precipitation Wind Pressure Humidity
    00:00 +6°C° 0 mm 2 mps 767 mmHg 82%
    01:00 +6°C° 0 mm 2 mps 767 mmHg 83%
    02:00 +6°C° 0 mm 2 mps 767 mmHg 85%
    03:00 +5°C° 0 mm 3 mps 766 mmHg 86%
    04:00 +5°C° 0 mm 3 mps 766 mmHg 88%
    05:00 +5°C° 0 mm 3 mps 766 mmHg 88%
    06:00 +7°C° 0 mm 3 mps 766 mmHg 87%
    07:00 +7°C° 0 mm 3 mps 766 mmHg 87%
    08:00 +7°C° 0 mm 4 mps 766 mmHg 82%
    09:00 +10°C° 0 mm 4 mps 766 mmHg 78%
    10:00 +11°C° 0 mm 4 mps 766 mmHg 73%
    11:00 +11°C° 0.1 mm 4 mps 766 mmHg 73%
    12:00 +11°C° 0.1 mm 4 mps 766 mmHg 74%
    13:00 +11°C° 0.1 mm 4 mps 766 mmHg 74%
    14:00 +11°C° 0.1 mm 4 mps 766 mmHg 77%
    15:00 +10°C° 0.1 mm 3 mps 766 mmHg 80%
    16:00 +9°C° 0.1 mm 3 mps 765 mmHg 84%
    17:00 +9°C° 0 mm 3 mps 766 mmHg 86%
    18:00 +8°C° 0 mm 2 mps 766 mmHg 88%
    19:00 +8°C° 0 mm 2 mps 766 mmHg 91%
    20:00 +8°C° 0 mm 1 mps 766 mmHg 91%
    21:00 +8°C° 0 mm 1 mps 766 mmHg 92%
    22:00 +7°C° 0 mm 0 mps 766 mmHg 93%
    23:00 +7°C° 0 mm 0 mps 766 mmHg 93%

    Day after tomorrow, 21 October, Sunday

    Time Temperature Precipitation Wind Pressure Humidity
    00:00 +8°C° 0 mm 1 mps 767 mmHg 93%
    01:00 +7°C° 0 mm 1 mps 767 mmHg 93%
    02:00 +7°C° 0 mm 1 mps 767 mmHg 93%
    03:00 +7°C° 0 mm 1 mps 767 mmHg 93%
    04:00 +7°C° 0 mm 1 mps 767 mmHg 94%
    05:00 +7°C° 0 mm 1 mps 768 mmHg 94%
    06:00 +7°C° 0 mm 1 mps 768 mmHg 94%
    07:00 +7°C° 0 mm 1 mps 768 mmHg 94%
    08:00 +8°C° 0 mm 1 mps 768 mmHg 89%
    09:00 +9°C° 0 mm 2 mps 769 mmHg 84%
    10:00 +10°C° 0 mm 2 mps 769 mmHg 79%
    11:00 +12°C° 0 mm 2 mps 769 mmHg 77%
    12:00 +11°C° 0 mm 3 mps 769 mmHg 75%
    13:00 +12°C° 0 mm 3 mps 768 mmHg 72%
    14:00 +11°C° 0 mm 4 mps 768 mmHg 77%
    15:00 +10°C° 0 mm 4 mps 768 mmHg 81%
    16:00 +8°C° 0 mm 4 mps 768 mmHg 85%
    17:00 +8°C° 0 mm 4 mps 768 mmHg 87%
    18:00 +8°C° 0 mm 5 mps 767 mmHg 90%
    19:00 +7°C° 0 mm 5 mps 767 mmHg 92%
    20:00 +7°C° 0 mm 5 mps 767 mmHg 92%
    21:00 +7°C° 0 mm 6 mps 767 mmHg 91%
    22:00 +7°C° 0 mm 6 mps 766 mmHg 91%
    23:00 +8°C° 0 mm 7 mps 766 mmHg 90%

    22 October, Monday

    Time Temperature Precipitation Wind Pressure Humidity
    00:00 +8°C° 0 mm 7 mps 766 mmHg 89%
    01:00 +7°C° 0 mm 8 mps 765 mmHg 89%
    02:00 +7°C° 0 mm 8 mps 765 mmHg 88%
    03:00 +7°C° 0 mm 8 mps 764 mmHg 87%
    04:00 +9°C° 0 mm 8 mps 763 mmHg 86%
    05:00 +8°C° 0.1 mm 9 mps 763 mmHg 85%
    06:00 +8°C° 0.1 mm 9 mps 762 mmHg 85%
    07:00 +10°C° 0.1 mm 9 mps 762 mmHg 84%
    08:00 +10°C° 0.7 mm 9 mps 762 mmHg 86%
    09:00 +10°C° 0.7 mm 9 mps 762 mmHg 88%
    10:00 +10°C° 0.7 mm 8 mps 762 mmHg 90%
    11:00 +10°C° 0.5 mm 8 mps 762 mmHg 86%
    12:00 +9°C° 0.5 mm 7 mps 762 mmHg 81%
    13:00 +9°C° 0.5 mm 6 mps 762 mmHg 76%
    14:00 +8°C° 0 mm 6 mps 762 mmHg 75%
    15:00 +8°C° 0 mm 6 mps 762 mmHg 74%
    16:00 +7°C° 0 mm 5 mps 762 mmHg 73%
    17:00 +7°C° 0 mm 5 mps 763 mmHg 74%
    18:00 +6°C° 0 mm 5 mps 763 mmHg 76%
    19:00 +6°C° 0 mm 5 mps 763 mmHg 77%
    20:00 +6°C° 0 mm 5 mps 763 mmHg 77%
    21:00 +6°C° 0 mm 5 mps 763 mmHg 78%
    22:00 +6°C° 0 mm 4 mps 762 mmHg 78%
    23:00 +5°C° 0.1 mm 5 mps 762 mmHg 80%

    23 October, Tuesday

    Time Temperature Precipitation Wind Pressure Humidity
    00:00 +5°C° 0.1 mm 5 mps 762 mmHg 81%
    01:00 +5°C° 0.1 mm 5 mps 761 mmHg 83%
    02:00 +5°C° 0 mm 5 mps 761 mmHg 83%
    03:00 +5°C° 0 mm 5 mps 760 mmHg 84%
    04:00 +5°C° 0 mm 5 mps 759 mmHg 84%
    05:00 +4°C° 0.3 mm 6 mps 759 mmHg 84%
    06:00 +5°C° 0.3 mm 7 mps 758 mmHg 84%
    07:00 +5°C° 0.3 mm 8 mps 757 mmHg 83%
    08:00 +5°C° 0.3 mm 8 mps 757 mmHg 78%
    09:00 +6°C° 0.3 mm 9 mps 757 mmHg 73%
    10:00 +7°C° 0.3 mm 9 mps 757 mmHg 69%
    11:00 +7°C° 0.3 mm 8 mps 757 mmHg 68%
    12:00 +7°C° 0.3 mm 8 mps 756 mmHg 68%
    13:00 +7°C° 0.3 mm 8 mps 756 mmHg 67%
    14:00 +6°C° 0.1 mm 7 mps 756 mmHg 70%
    15:00 +6°C° 0.1 mm 7 mps 756 mmHg 73%
    16:00 +5°C° 0.1 mm 6 mps 756 mmHg 75%
    17:00 +5°C° 0 mm 6 mps 756 mmHg 78%
    18:00 +5°C° 0 mm 5 mps 756 mmHg 80%
    19:00 +5°C° 0 mm 5 mps 756 mmHg 82%
    20:00 +5°C° 0 mm 5 mps 756 mmHg 83%
    21:00 +4°C° 0 mm 4 mps 755 mmHg 83%
    22:00 +4°C° 0 mm 4 mps 754 mmHg 83%
    23:00 +3°C° 0 mm 5 mps 753 mmHg 82%

    24 October, Wednesday

    Time Temperature Precipitation Wind Pressure Humidity
    00:00 +4°C° 0 mm 6 mps 752 mmHg 80%
    01:00 +4°C° 0 mm 7 mps 750 mmHg 79%
    02:00 +4°C° 0.7 mm 7 mps 749 mmHg 82%
    03:00 +5°C° 0.7 mm 8 mps 747 mmHg 85%
    04:00 +5°C° 0.7 mm 8 mps 745 mmHg 88%
    05:00 +6°C° 0.7 mm 9 mps 744 mmHg 85%
    06:00 +7°C° 0.7 mm 10 mps 743 mmHg 83%
    07:00 +8°C° 0.7 mm 11 mps 742 mmHg 80%
    08:00 +8°C° 0.1 mm 12 mps 742 mmHg 75%
    09:00 +8°C° 0.1 mm 12 mps 742 mmHg 69%
    10:00 +8°C° 0.1 mm 13 mps 742 mmHg 64%
    11:00 +8°C° 0.2 mm 14 mps 742 mmHg 65%
    12:00 +6°C° 0.2 mm 14 mps 743 mmHg 66%
    13:00 +6°C° 0.2 mm 14 mps 743 mmHg 68%
    14:00 +6°C° 0.4 mm 15 mps 743 mmHg 69%
    15:00 +6°C° 0.4 mm 15 mps 743 mmHg 70%
    16:00 +5°C° 0.4 mm 16 mps 744 mmHg 71%
    17:00 +5°C° 0.3 mm 16 mps 744 mmHg 71%
    18:00 +5°C° 0.3 mm 16 mps 745 mmHg 71%
    19:00 +5°C° 0.3 mm 15 mps 746 mmHg 71%
    20:00 +5°C° 0.3 mm 15 mps 747 mmHg 71%
    21:00 +5°C° 0.3 mm 14 mps 748 mmHg 71%
    22:00 +5°C° 0.3 mm 13 mps 748 mmHg 71%
    23:00 +4°C° 0.4 mm 13 mps 749 mmHg 70%
    Show more